Wind_Speed
14 14 13 13 13 14 14 14 14 14 14 14 13 12 12 12 12 11 10 10 10 11 12 12 13 14 14 15 15 15 15 15 14 13 13 13 13 13 12 12 12 12 11 11 10 10 10 9 9 9 9 10 10 10 10 11 11 11 11 11 12 12 12 12 11 10 8 8 8 8 8 9 10 9 8 7 6 5 6 6 7 7 8 9 10
13 13 13 12 13 14 14 14 14 14 14 14 14 13 12 13 12 10 10 10 10 10 11 11 12 13 13 14 15 15 15 15 14 14 14 14 14 13 13 13 13 13 12 12 11 11 10 10 9 8 9 9 10 10 10 11 11 11 12 12 13 14 14 14 14 14 13 13 12 12 12 12 13 14 14 13 12 12 12 12 12 12 12 12 12
13 13 12 12 12 13 13 13 14 15 14 14 14 13 12 12 12 11 10 9 10 10 10 11 11 12 13 14 14 14 14 14 14 14 15 15 14 14 13 13 13 13 13 12 12 11 11 10 9 9 9 9 10 11 11 12 12 12 12 13 13 14 14 15 15 15 15 15 15 14 13 13 14 15 16 17 17 16 16 15 15 14 14 13 13
12 12 12 12 12 12 12 13 14 14 14 13 14 13 12 12 13 12 10 9 10 9 10 10 11 11 13 13 13 13 13 13 13 13 14 15 15 14 14 14 13 13 13 12 12 12 11 11 10 10 10 10 10 11 12 13 13 13 13 13 13 13 14 15 15 15 15 15 14 14 13 13 14 15 16 16 17 17 17 16 15 14 14 13 13
12 12 11 12 12 13 13 13 13 14 14 13 13 14 13 12 12 12 11 10 11 10 10 10 11 12 12 12 13 12 12 12 12 13 13 14 14 15 15 15 14 13 13 12 12 12 12 12 11 11 10 10 11 12 12 13 13 13 13 13 13 13 14 14 14 14 14 14 13 13 13 12 13 13 14 15 15 15 15 15 14 14 13 13 13
12 12 12 13 14 14 13 13 13 13 14 14 14 15 15 14 13 12 11 11 12 11 10 10 11 12 12 12 12 11 12 12 12 12 13 13 13 14 14 15 14 13 13 12 13 13 13 13 12 12 11 11 11 12 13 13 13 13 13 13 13 14 14 14 14 14 13 13 12 12 12 12 12 13 13 13 13 13 13 13 13 12 12 12 12
12 12 12 14 15 14 14 13 13 14 15 15 15 15 15 15 14 13 12 12 13 13 11 11 11 12 12 12 12 11 11 11 12 12 12 12 12 13 13 14 13 13 12 12 12 13 13 13 13 12 12 12 12 12 12 12 12 12 12 13 13 13 13 13 13 12 12 12 11 11 11 11 11 11 11 11 11 11 11 11 10 11 11 11 11
12 12 13 14 15 14 13 13 14 15 15 15 15 15 15 15 14 13 12 13 13 13 12 11 11 12 12 12 12 11 10 10 11 11 12 11 11 12 12 12 13 12 12 12 12 12 12 12 12 12 12 12 11 11 11 11 11 11 11 11 11 12 12 11 11 10 10 10 10 10 10 9 9 9 9 8 8 8 8 8 8 9 9 9 10
12 12 14 14 14 13 13 13 14 14 14 14 14 14 13 13 13 13 13 13 13 13 12 11 12 12 12 12 11 11 10 10 10 10 11 10 10 11 11 12 12 11 11 11 12 12 12 12 12 12 12 12 11 10 10 10 9 9 10 10 10 10 10 9 9 9 9 9 9 9 8 8 8 7 7 7 7 7 7 7 7 7 8 9 9
12 12 13 14 12 12 13 13 13 13 13 13 12 12 12 12 12 11 11 11 12 12 12 11 11 12 11 11 11 10 10 9 9 10 10 9 9 10 11 12 12 11 11 11 11 11 12 12 13 13 12 12 11 10 10 9 9 9 9 9 9 8 8 8 8 8 8 8 8 8 8 8 8 7 7 7 7 6 7 7 7 7 8 9 10
11 12 12 13 12 12 12 13 13 12 12 11 12 12 12 11 11 10 10 10 11 11 10 10 10 10 9 9 9 9 8 8 7 9 9 9 8 9 11 11 12 11 11 12 11 11 11 12 12 12 12 12 11 11 11 10 10 10 9 9 9 8 8 8 8 8 8 8 8 8 8 8 8 8 8 8 8 8 8 8 9 10 11 12 13
10 11 12 12 11 11 12 12 13 13 12 12 12 13 13 12 11 11 10 10 10 10 9 9 8 8 7 7 8 8 7 7 7 8 9 8 8 9 10 11 11 11 11 12 11 10 10 11 11 12 12 11 11 11 11 11 12 11 11 10 9 9 9 8 8 8 8 8 8 8 8 9 9 9 9 10 10 10 10 10 11 11 12 13 14
9 10 11 11 11 11 11 12 13 14 13 13 13 13 13 12 12 13 12 10 10 10 9 9 7 6 6 6 7 7 7 7 7 8 9 9 9 10 11 11 10 10 10 11 11 10 10 10 10 10 11 11 11 10 10 11 11 11 11 10 9 9 8 8 8 7 7 7 8 8 8 9 9 9 10 10 10 11 11 11 11 11 12 12 13
8 9 10 10 10 11 11 12 13 14 14 13 13 13 12 12 12 13 13 11 10 10 10 10 8 6 6 7 7 7 7 8 9 9 9 9 10 12 12 11 10 10 10 10 11 10 10 10 10 10 10 10 10 10 9 9 9 9 9 9 8 8 7 7 7 7 7 7 8 8 8 9 9 10 10 10 10 10 10 10 11 11 11 12 13
8 9 9 9 10 10 11 11 12 13 14 13 14 13 13 12 13 13 13 12 10 10 10 11 11 9 8 9 9 9 9 10 10 11 10 9 10 12 12 11 11 11 10 11 11 11 11 10 10 10 10 10 10 9 9 9 9 8 8 7 7 7 7 7 7 7 7 7 7 8 8 9 9 9 10 10 10 10 11 11 12 12 13 14 14
8 8 9 9 9 9 10 10 11 12 13 13 14 14 13 13 13 14 13 12 11 10 10 12 12 12 11 11 11 10 10 10 11 11 10 9 10 11 12 11 11 10 10 10 11 11 11 11 11 10 10 10 10 10 9 9 9 9 8 8 8 8 8 7 7 7 7 7 8 9 9 10 11 11 11 12 12 12 12 12 12 12 12 13 13
7 8 8 9 8 8 9 9 10 10 12 13 13 14 14 15 15 14 14 13 12 11 10 11 13 13 12 12 11 10 9 10 11 11 10 10 11 11 11 11 10 10 10 10 10 11 11 11 11 10 10 9 9 9 9 9 8 9 9 8 8 8 8 8 8 8 8 9 10 10 11 11 12 12 12 12 11 11 10 10 10 10 11 12 13
7 8 8 9 8 8 8 8 9 9 11 12 12 13 14 16 16 15 15 14 13 12 11 11 11 11 11 11 11 11 9 10 11 11 11 11 12 12 12 12 11 10 10 10 9 10 10 10 10 10 10 9 9 9 9 9 8 9 9 9 9 9 9 9 9 9 10 10 10 10 10 11 11 11 11 10 10 9 9 10 10 11 12 14 15
7 7 8 9 8 8 7 8 8 9 11 11 11 12 14 15 16 16 15 14 13 12 10 10 10 10 10 10 11 11 10 10 11 12 12 12 12 12 12 12 11 11 11 10 10 10 11 10 9 9 9 9 9 9 9 9 10 10 11 11 11 10 10 10 10 10 10 10 10 10 10 10 10 10 10 10 10 11 11 12 13 14 15 16 16
6 7 8 9 8 8 8 8 8 9 10 10 11 11 12 14 15 16 15 14 13 12 10 9 8 8 8 9 10 11 11 12 12 12 12 13 13 12 12 12 11 11 12 12 11 11 10 9 9 9 10 9 9 9 10 10 10 11 12 12 12 12 12 12 12 12 12 12 11 11 11 11 11 11 12 12 13 13 14 14 15 16 16 17 18
6 7 8 8 8 8 7 7 8 9 10 10 10 10 10 12 14 14 14 13 13 12 11 9 8 7 7 8 9 11 12 12 12 12 12 12 12 12 12 11 11 12 12 12 12 11 10 9 8 9 9 9 9 9 9 9 10 11 12 12 12 13 13 13 14 14 13 13 13 13 13 13 13 13 14 14 14 15 15 16 17 18 18 19 20
7 7 8 8 8 8 7 7 7 8 10 10 10 10 10 10 11 12 12 12 12 12 11 10 8 7 7 8 10 11 11 11 12 11 11 11 11 11 11 10 10 11 11 11 10 9 9 8 8 8 9 9 8 8 9 9 10 10 11 12 12 13 13 14 14 14 14 14 14 14 15 15 15 15 15 15 16 16 17 18 19 20 21 22 22
8 8 8 8 8 8 7 7 7 8 9 10 10 10 10 9 9 10 10 11 11 11 10 10 9 8 8 9 10 11 11 10 10 10 10 10 10 9 9 9 9 9 9 9 8 8 8 8 8 8 8 8 8 8 9 10 10 11 11 11 12 13 13 14 14 14 15 15 15 16 16 16 17 17 17 17 17 18 19 19 20 21 22 23 24
10 9 10 10 10 10 9 9 8 9 9 10 10 10 10 9 9 8 9 9 9 9 9 9 8 9 8 8 9 10 10 10 9 9 9 9 8 8 8 8 8 8 7 7 7 7 8 9 9 9 9 9 9 9 10 10 11 11 11 12 12 13 14 14 14 14 15 16 16 17 17 18 18 18 19 19 19 20 20 21 22 23 24 25 26
11 12 12 12 12 12 12 11 11 11 11 11 12 11 11 10 9 9 8 7 7 7 7 7 7 8 8 7 7 8 8 9 9 9 9 9 9 8 9 9 8 8 8 8 7 7 7 8 8 9 10 10 10 11 11 11 11 11 12 12 13 13 14 15 15 15 16 17 18 19 19 19 19 19 20 20 20 20 21 22 23 24 25 26 27
12 13 13 13 13 13 12 12 11 11 11 12 12 12 12 11 10 9 8 7 6 5 5 5 5 6 6 6 6 5 6 7 7 8 8 8 9 9 10 10 10 9 9 9 8 8 7 7 7 8 9 9 10 10 11 11 12 12 13 13 14 15 15 16 17 17 18 18 19 19 19 19 19 19 20 20 20 21 22 23 24 25 27 28 29
13 13 12 12 11 10 10 9 9 9 9 10 11 11 11 11 11 10 10 8 7 5 4 4 3 3 3 4 3 3 4 5 6 7 7 8 9 9 9 10 10 10 9 9 9 9 8 8 7 7 7 8 8 9 10 10 11 12 13 14 15 16 16 17 18 18 18 18 18 17 18 18 19 19 20 20 21 22 23 24 25 26 27 28 29
13 13 11 10 8 7 6 6 6 6 6 7 7 8 9 10 10 11 11 10 9 8 6 4 3 2 2 2 2 3 3 4 5 6 7 8 9 9 10 10 10 10 10 10 9 9 9 8 8 8 8 8 8 9 9 10 10 11 12 14 15 16 16 17 17 17 17 17 17 17 18 19 19 20 21 22 22 23 24 25 26 27 28 29 29
14 12 11 9 7 5 3 3 2 3 4 4 5 6 7 8 8 9 10 10 11 10 9 7 5 4 3 3 3 4 5 5 6 7 8 9 10 10 10 10 10 10 9 9 9 9 9 8 8 8 8 8 9 9 9 10 10 11 12 13 14 15 15 16 16 16 17 17 18 19 19 20 21 21 22 23 24 25 26 27 28 29 30 30 31
13 12 10 8 6 4 2 1 1 2 3 4 5 6 7 8 8 9 9 9 10 11 11 10 8 6 5 4 4 4 5 6 7 8 9 9 10 10 10 10 10 9 9 8 8 8 8 8 8 8 9 9 9 9 9 9 10 11 12 13 14 14 15 15 15 16 17 19 20 20 21 22 22 23 24 24 25 26 27 28 29 30 31 32 33
13 12 10 8 7 5 4 4 4 5 5 6 6 7 8 9 9 10 10 9 9 10 12 12 11 8 7 5 4 4 4 5 6 7 8 9 9 10 10 10 10 9 8 7 7 8 8 8 8 9 9 9 9 9 9 10 11 12 13 13 14 15 15 16 17 18 19 20 21 22 23 24 24 25 25 26 27 28 29 30 31 32 34 35 35
13 12 10 9 8 7 6 6 6 7 7 8 8 8 9 9 10 11 11 11 10 10 11 12 13 11 8 7 6 4 4 4 4 5 6 7 8 8 9 9 9 9 8 7 7 7 7 8 8 9 9 9 10 10 10 11 11 12 13 14 15 15 16 17 18 20 21 22 23 24 25 25 26 27 27 28 29 30 31 33 34 35 36 36 36
14 12 11 10 9 8 8 8 8 8 9 10 10 10 9 10 11 11 11 12 11 10 10 11 12 12 9 7 6 5 4 4 4 4 5 6 6 7 7 7 7 8 8 8 8 7 7 8 8 9 10 11 11 11 12 12 13 14 15 16 17 17 18 19 20 22 23 24 24 25 26 27 28 29 30 30 32 33 34 35 36 37 38 37 36
15 13 12 11 10 10 9 9 9 9 10 11 11 11 11 10 10 11 11 11 11 11 10 10 11 11 11 8 6 6 5 5 5 5 5 5 5 5 5 5 6 6 7 8 8 9 9 9 10 10 11 12 12 13 14 14 15 16 18 18 19 20 21 22 23 23 24 25 26 27 28 29 30 30 31 33 34 35 36 36 37 38 38 37 36
16 14 14 13 12 11 11 11 10 10 11 11 11 12 12 10 10 10 10 11 10 10 10 10 10 11 11 9 7 6 5 5 5 5 6 6 6 6 6 6 6 7 7 7 8 9 9 10 11 12 13 14 14 15 16 17 18 18 20 21 21 22 23 24 25 26 27 28 28 28 29 30 31 32 33 34 36 37 37 37 37 38 37 37 36
16 16 15 14 13 12 12 12 12 12 12 11 11 11 11 11 10 9 9 9 10 9 9 10 10 11 11 9 7 6 6 6 6 6 6 7 7 7 7 8 8 8 9 9 9 9 10 11 12 13 14 15 16 17 18 19 20 21 23 24 24 24 25 26 28 29 30 30 31 31 30 31 32 34 35 36 36 37 37 37 37 38 37 36 36
17 17 16 15 14 13 13 13 12 12 12 11 12 12 11 11 10 9 9 9 9 9 9 9 10 10 11 11 8 6 6 6 6 6 7 8 8 9 9 9 10 10 10 11 12 12 12 13 14 14 15 16 18 20 21 22 23 24 26 27 28 27 28 29 30 31 31 32 32 33 33 33 34 35 36 37 37 37 38 38 38 38 38 37 37
18 17 16 15 15 14 14 13 12 12 11 11 12 12 12 11 11 10 10 10 9 9 10 10 10 10 11 11 8 6 6 7 7 6 7 7 8 9 10 11 11 11 12 13 14 14 14 15 16 18 19 20 20 21 23 25 25 26 28 30 30 30 30 31 31 32 33 33 34 35 35 35 36 36 36 37 37 37 38 38 38 39 39 39 38
19 17 17 16 16 16 15 13 12 12 12 12 12 13 13 13 12 11 11 11 11 10 10 11 10 11 11 10 7 5 6 7 7 7 7 7 7 8 10 11 12 12 13 14 15 15 15 16 16 18 20 21 22 22 24 25 25 26 29 31 31 31 33 34 33 33 35 36 37 37 37 37 37 36 36 37 38 38 38 39 39 40 40 40 40
19 18 17 17 17 16 15 14 13 13 12 12 13 13 14 14 13 12 11 12 12 11 11 11 11 11 11 8 5 4 5 6 6 7 7 8 8 9 10 11 12 12 12 14 15 15 15 15 16 17 19 21 23 25 26 27 27 27 30 33 32 32 35 36 35 35 36 37 38 38 37 37 36 36 36 37 38 39 39 39 40 41 41 42 42
19 18 17 17 16 16 15 14 13 12 12 12 13 13 14 14 13 12 12 12 12 12 11 11 11 10 9 6 4 4 4 4 5 6 7 8 8 8 10 12 12 13 14 15 16 17 18 18 18 19 21 22 24 27 29 30 32 33 34 36 35 34 37 37 36 36 38 39 39 37 36 36 37 37 37 37 39 40 40 40 41 41 41 42 43
19 18 17 16 16 16 15 14 13 12 12 13 13 13 13 13 13 12 12 13 13 12 11 10 10 9 7 5 4 4 4 5 6 7 7 8 8 9 11 14 15 16 17 18 19 20 22 22 22 23 24 24 25 29 31 33 36 38 38 39 38 38 39 39 37 37 39 42 42 39 37 37 38 39 39 38 39 41 41 41 41 41 41 41 43
19 18 17 16 15 16 16 15 13 12 13 13 12 12 12 12 12 12 11 12 12 12 11 10 9 7 5 4 4 4 5 5 6 7 8 10 10 11 14 16 18 19 20 20 22 23 25 26 26 27 27 26 27 30 32 34 37 39 41 42 42 41 42 43 40 38 40 44 45 42 39 38 40 41 41 39 39 42 43 42 41 42 42 42 43
19 18 16 16 16 16 16 15 14 13 14 13 12 12 12 11 11 11 10 11 11 11 10 9 8 7 5 4 4 4 5 6 7 9 10 12 14 15 17 19 21 22 23 23 24 26 28 28 28 29 30 30 31 31 33 36 39 41 43 44 45 45 46 46 44 41 42 45 48 46 43 41 41 43 42 40 40 43 45 44 43 43 43 43 44
19 17 16 16 16 16 15 15 15 15 15 14 12 12 12 11 10 10 10 10 10 9 8 8 8 7 5 4 4 4 6 8 9 11 13 15 18 19 21 23 24 26 26 26 28 29 31 31 31 30 31 34 35 34 36 40 43 45 46 47 48 49 49 50 49 46 46 48 49 49 47 44 43 44 43 41 42 44 46 46 44 45 45 45 46
18 17 17 16 17 17 17 17 16 15 15 14 13 13 12 11 10 9 9 9 8 8 7 7 7 5 4 3 4 6 9 11 13 15 17 19 21 22 24 25 27 29 29 29 30 32 33 34 34 33 33 36 39 38 40 45 46 47 49 50 51 52 52 53 52 51 51 51 52 53 51 46 46 46 43 42 43 45 47 47 46 46 47 46 47
18 18 18 18 18 19 18 18 17 16 15 15 15 14 13 12 11 10 9 9 8 8 7 6 6 4 4 5 6 9 12 14 16 18 20 22 23 24 25 27 28 30 30 30 32 34 35 36 37 37 36 39 42 42 44 47 49 49 50 52 52 52 53 54 54 54 55 55 56 57 55 50 49 48 45 44 46 47 48 49 48 48 48 47 48
19 19 20 19 19 19 19 19 19 17 17 17 17 16 15 14 12 11 10 10 9 8 8 7 6 5 6 8 10 12 15 17 20 22 23 25 26 26 27 27 29 29 29 30 33 35 36 38 39 40 40 41 44 45 46 49 52 52 54 56 54 53 55 57 56 55 57 59 60 61 59 54 52 51 48 47 49 50 51 52 51 51 51 50 49
21 21 22 22 21 21 22 21 20 20 19 19 19 18 17 16 14 13 13 12 11 10 9 9 7 7 9 11 14 15 17 20 22 25 27 28 28 28 29 29 29 29 29 32 35 36 37 39 40 41 42 43 46 49 50 53 56 56 59 61 59 58 61 62 61 61 64 63 62 62 62 59 57 57 55 53 53 54 55 57 56 55 53 52 51
22 23 24 24 24 23 23 22 21 22 21 21 20 19 18 18 17 16 15 13 12 11 11 10 10 10 12 15 17 19 20 22 25 27 29 30 30 29 31 31 31 30 32 36 39 39 39 40 40 42 45 47 49 52 53 55 56 56 60 63 62 62 65 67 68 70 69 66 63 65 65 63 61 62 62 61 60 60 62 63 63 60 58 56 54
23 25 26 26 25 25 24 23 23 23 22 21 20 19 19 19 18 17 16 15 13 13 12 12 13 14 16 19 21 22 24 25 28 29 30 31 31 31 33 35 34 34 36 40 43 44 43 42 42 44 47 47 49 51 51 51 52 54 58 61 62 64 66 68 71 72 71 67 65 66 66 64 62 61 62 63 62 61 62 64 64 63 63 62 61
Wind_Direction
82 79 75 75 78 81 83 81 78 74 72 71 69 71 74 74 75 81 89 93 92 88 86 85 82 82 85 86 86 85 87 88 90 94 97 98 97 97 97 98 98 97 97 97 98 97 94 91 89 89 88 87 86 85 84 84 85 84 81 78 74 70 67 66 69 75 81 85 85 83 80 75 68 59 49 41 45 70 90 88 78 71 66 65 63
83 81 78 77 79 83 84 80 76 74 73 73 71 68 70 74 76 78 83 89 93 93 93 92 89 86 85 84 83 83 85 86 87 89 91 95 97 97 98 98 99 98 99 99 99 100 99 97 96 95 94 93 93 91 90 91 90 88 85 82 80 77 76 76 77 80 85 88 89 89 86 81 74 69 67 68 74 84 91 92 88 85 82 76 69
83 81 80 80 82 85 86 82 78 75 72 72 73 71 70 73 76 79 80 84 90 94 96 96 93 89 87 86 85 86 87 89 89 89 89 89 90 91 92 95 97 99 100 101 100 100 101 101 101 100 98 96 95 94 94 94 94 93 91 87 85 83 82 83 83 85 87 89 91 90 87 82 76 73 73 76 81 85 88 89 89 88 85 79 72
80 79 81 83 88 91 90 87 84 81 76 74 75 75 75 73 76 80 83 85 90 94 96 97 95 91 88 86 86 87 89 90 91 90 89 88 87 86 87 89 94 97 99 99 98 97 98 101 104 105 103 99 96 95 96 97 97 95 92 90 87 86 85 85 86 86 86 87 87 87 85 81 77 74 74 76 79 81 82 83 83 83 81 77 73
77 76 77 84 92 95 94 91 87 85 82 77 75 78 81 80 79 81 83 84 88 93 96 96 96 93 89 86 84 85 86 87 88 89 88 88 87 86 85 86 88 90 91 92 92 91 93 96 101 105 106 104 101 99 99 98 98 96 93 92 90 88 86 85 84 83 83 83 82 81 80 77 75 73 72 72 73 74 75 75 75 74 73 71 69
78 75 77 85 92 94 93 90 86 86 86 83 79 78 81 83 83 81 80 80 83 89 93 93 95 95 93 91 87 84 84 86 86 87 87 87 87 87 85 84 84 85 85 86 88 88 88 91 97 105 110 110 107 105 103 101 100 98 96 93 91 89 87 85 83 82 81 81 79 77 75 73 72 71 70 70 70 70 70 69 68 67 66 65 62
79 78 83 89 92 92 88 84 83 87 89 86 83 77 75 76 77 78 76 76 80 85 91 92 94 96 96 95 93 90 88 89 90 90 89 88 88 87 86 84 83 83 84 85 86 86 86 88 92 100 110 113 112 110 108 106 104 102 99 94 91 89 87 85 84 82 81 79 77 74 71 70 70 70 70 71 70 70 68 66 64 61 59 56 53
80 82 87 90 91 88 84 82 85 91 94 91 85 78 73 71 72 72 72 74 77 83 89 92 92 95 98 98 98 98 97 95 96 96 94 92 91 89 87 85 84 84 85 86 85 84 84 86 87 91 99 108 113 114 113 111 109 106 101 96 92 88 85 83 82 80 77 74 71 68 65 63 62 63 63 65 66 66 64 63 58 53 49 45 42
86 89 93 93 91 87 82 81 84 88 92 92 88 82 77 73 70 68 68 69 74 80 87 90 91 93 97 99 101 103 104 101 100 99 96 94 92 91 88 86 87 87 89 90 87 85 84 86 86 86 90 98 107 113 114 113 109 104 99 94 89 86 83 79 75 71 67 64 60 55 51 47 47 47 46 46 48 49 49 48 46 41 36 33 29
96 99 101 100 96 89 84 82 81 82 85 87 88 86 83 78 74 68 63 63 65 71 79 84 87 90 94 99 101 104 104 102 100 97 92 88 87 87 88 87 88 91 94 96 94 89 87 86 86 86 88 93 100 107 112 110 106 100 94 90 87 86 82 76 69 63 58 53 50 46 43 39 38 37 35 33 31 31 30 27 25 22 19 16 14
103 108 110 109 103 93 89 87 83 80 80 82 85 87 85 83 80 72 62 58 59 61 68 76 81 86 92 97 100 101 100 97 93 89 88 87 84 82 84 86 88 91 96 99 99 95 91 89 88 88 89 91 96 101 105 105 102 99 95 92 89 85 80 76 69 62 56 50 46 44 41 39 35 33 31 28 25 22 19 16 12 9 6 5 4
106 115 118 116 108 98 93 90 83 78 77 78 80 81 81 81 81 76 67 63 65 67 71 76 78 82 88 93 96 97 96 93 85 82 87 87 82 80 80 82 86 91 95 98 100 100 97 93 89 89 89 89 90 93 97 100 100 99 97 94 90 84 80 76 70 62 55 48 42 38 35 32 29 27 25 23 21 19 16 13 10 7 5 4 3
110 120 124 119 110 100 92 86 79 74 74 78 79 77 75 77 80 80 76 75 79 83 86 87 84 84 90 92 91 94 94 88 82 80 81 76 74 76 75 77 81 87 91 94 97 101 101 98 93 89 87 86 85 85 88 92 96 97 96 94 90 84 77 70 63 56 49 43 37 33 29 26 23 22 20 18 16 15 13 10 8 6 3 2 1
113 118 123 120 111 101 93 86 78 74 76 81 81 77 74 75 79 82 82 82 83 87 92 94 92 91 93 93 93 94 92 89 87 86 80 72 69 72 73 73 77 80 83 86 90 94 97 99 97 92 87 83 82 81 80 81 83 85 86 86 83 77 68 59 52 47 43 39 35 31 27 24 21 18 16 13 11 10 8 5 3 1 359 358 357
115 113 118 119 111 103 96 90 81 76 80 85 85 81 76 74 79 83 85 84 82 84 91 95 98 98 93 92 95 96 96 96 95 93 90 81 73 73 75 75 75 77 77 79 82 84 87 91 95 94 89 83 80 77 74 72 69 66 63 62 62 59 55 51 47 43 40 37 34 30 27 24 20 17 14 11 9 6 4 2 -0 359 358 356 354
117 113 114 116 111 104 98 92 84 79 82 87 88 84 78 75 78 84 88 87 86 86 90 94 98 99 95 92 93 94 98 101 100 99 99 95 84 80 81 81 81 82 80 78 77 77 79 83 86 88 88 85 82 79 75 73 71 68 62 55 52 50 48 47 45 41 37 32 28 24 21 19 17 15 13 11 9 6 4 2 0 359 357 354 353
121 115 113 113 112 106 99 93 87 81 81 84 87 86 80 77 77 83 89 92 91 91 93 97 99 98 98 96 94 93 96 100 102 102 102 99 90 85 84 84 85 84 80 76 74 75 76 77 79 82 85 86 86 86 84 81 78 75 69 61 54 49 44 41 37 32 28 24 21 19 17 17 16 15 14 12 9 7 5 4 3 1 360 358 357
127 120 115 114 115 111 104 96 88 80 78 80 83 83 80 78 78 80 88 94 95 96 98 101 101 98 96 97 97 97 97 96 96 95 94 88 83 81 80 79 79 78 76 74 73 76 76 73 71 74 78 80 81 82 81 79 76 71 64 56 50 42 35 32 29 26 23 20 17 16 16 16 17 16 13 11 11 10 11 11 10 9 7 5 2
132 125 120 117 117 116 109 98 87 78 74 75 79 80 79 78 78 78 83 90 94 97 101 104 104 99 93 91 95 98 97 95 93 91 88 83 80 78 75 74 75 76 76 75 72 71 72 72 71 70 70 71 71 69 66 64 60 57 53 48 43 37 31 26 23 21 18 15 14 13 15 17 17 16 14 14 16 17 17 16 14 11 8 5 2
138 130 125 121 118 116 110 97 85 77 73 71 73 77 78 77 78 79 80 85 90 92 95 99 103 99 91 88 93 99 98 97 96 94 91 87 84 80 76 74 74 73 72 71 68 64 65 68 71 70 64 59 58 55 52 50 47 44 41 37 34 30 26 22 19 18 17 17 17 19 21 22 21 20 19 18 17 16 15 13 12 9 6 3 359
142 134 129 125 122 117 111 101 90 81 75 70 68 70 73 75 78 81 82 84 87 89 89 90 92 94 91 89 93 97 97 97 98 96 94 89 85 80 76 73 71 68 65 63 62 59 58 58 60 60 56 49 44 41 38 36 35 33 29 25 24 24 23 22 22 20 20 20 21 22 22 22 21 18 16 15 13 11 10 9 8 6 4 1 358
143 137 132 127 124 120 113 105 96 87 79 73 67 65 66 68 71 76 79 80 82 85 87 86 86 85 86 90 92 92 91 91 91 89 86 82 78 75 71 69 68 66 63 59 58 55 52 48 45 45 44 38 32 29 27 24 22 23 22 20 19 21 22 22 21 19 18 19 19 20 20 19 17 15 13 11 10 10 9 8 7 5 4 3 0
143 136 131 125 121 117 111 103 93 85 78 72 66 62 60 60 63 68 72 74 76 79 82 84 83 80 80 86 92 94 90 87 86 83 80 76 73 72 69 64 64 64 62 57 51 47 40 35 33 31 30 26 20 18 19 18 16 18 20 20 19 20 21 20 19 18 19 20 21 22 21 20 17 15 13 13 12 12 11 11 10 9 8 6 3
144 134 127 120 115 110 104 97 88 79 73 68 63 58 55 54 53 56 62 68 71 75 78 81 83 83 83 85 90 92 89 84 83 83 83 81 78 75 70 61 57 57 57 53 46 38 29 23 22 22 22 19 16 16 18 18 17 19 22 24 23 21 21 21 20 22 24 25 25 25 25 23 21 19 18 17 17 17 16 16 15 13 11 8 4
143 133 126 119 112 106 100 92 85 78 71 67 63 57 52 48 45 43 47 56 64 69 74 78 81 87 92 95 93 88 81 74 71 73 78 79 76 70 61 54 52 50 48 48 47 39 29 21 16 14 15 14 13 15 19 21 21 23 25 26 25 24 24 23 23 25 26 26 26 25 24 22 21 20 18 18 17 16 15 14 12 9 7 3 -0
140 132 125 118 111 105 99 92 84 77 70 65 63 59 53 47 42 38 34 36 45 54 64 71 77 85 95 102 100 89 74 62 57 59 62 64 60 53 47 46 48 49 46 44 44 40 36 33 24 16 12 10 9 10 15 20 22 23 24 25 26 26 25 24 24 23 23 21 19 18 18 18 17 15 13 11 9 8 6 4 3 1 359 357 356
139 133 125 118 111 103 96 88 79 72 65 59 57 55 51 46 42 37 31 26 23 25 36 51 60 69 82 92 89 72 57 53 49 46 44 43 40 37 34 35 37 41 43 41 39 37 37 37 31 24 19 14 11 11 15 19 21 21 21 22 23 22 20 18 17 15 14 12 11 12 13 13 12 9 6 4 2 -0 358 357 355 354 354 354 353
143 138 132 125 118 109 96 84 70 58 49 42 38 38 37 36 35 33 30 26 19 10 4 7 13 22 33 38 30 18 20 34 42 40 37 33 30 27 28 30 32 33 37 39 37 35 34 33 28 23 20 18 16 16 18 19 20 19 18 17 16 15 13 9 7 5 4 3 4 6 8 7 6 3 1 360 358 357 356 355 353 352 351 351 351
148 144 140 137 133 128 113 87 57 29 15 6 2 3 5 7 11 15 19 21 19 13 3 353 345 341 346 357 5 8 8 15 26 29 29 28 26 26 28 32 36 38 38 38 36 33 29 26 24 20 17 16 16 16 17 16 15 15 13 11 9 7 5 2 0 359 359 360 2 3 4 3 2 1 359 358 357 357 357 356 355 353 352 350 348
153 150 150 153 159 167 183 223 285 307 318 322 326 330 332 336 340 346 354 2 7 11 7 360 350 337 332 337 348 2 10 12 15 18 22 26 27 29 31 34 39 44 45 40 33 29 24 19 17 17 14 14 15 14 12 10 8 7 5 4 2 360 358 356 354 354 354 355 356 357 357 356 356 356 356 356 356 356 356 355 354 352 350 348 346
159 159 164 171 182 196 216 240 262 280 291 297 302 307 311 314 319 323 329 336 344 355 2 2 358 347 336 335 340 351 5 12 12 15 20 24 27 29 31 32 35 42 47 43 32 24 18 13 11 11 12 12 12 10 7 3 -0 358 357 355 354 352 351 350 349 348 348 348 348 348 348 349 349 351 352 353 353 352 352 351 350 349 348 347 345
168 171 177 184 196 210 225 243 259 272 281 288 292 295 298 302 305 309 312 317 324 335 346 355 358 355 345 338 342 346 350 358 5 11 17 20 23 26 29 30 30 31 34 36 32 23 14 8 6 4 4 5 3 1 359 356 353 350 348 347 346 345 344 342 341 340 340 340 341 342 343 345 346 347 348 349 349 349 348 347 346 346 346 346 346
180 184 192 201 212 224 236 246 257 267 276 284 288 290 291 293 296 299 301 305 312 320 331 342 351 355 351 340 341 347 345 345 350 358 8 14 18 21 23 26 26 25 23 21 19 14 9 5 1 357 356 355 354 353 350 348 344 342 340 338 337 336 335 334 333 334 335 336 338 339 341 342 344 344 345 346 346 345 344 343 343 344 345 345 346
192 198 206 215 222 231 240 249 257 265 272 279 284 286 287 289 291 293 295 298 303 310 319 330 339 347 350 341 332 336 342 344 348 354 1 6 11 12 12 13 17 19 16 11 7 3 -0 357 354 351 348 346 344 342 339 337 334 333 331 330 330 329 329 329 329 330 332 334 335 337 338 340 341 342 342 342 342 342 341 340 340 341 343 344 345
200 207 214 220 227 234 241 248 255 260 265 270 274 280 285 289 290 290 291 294 296 299 307 316 323 333 341 337 322 317 326 336 344 354 359 1 3 -0 356 357 359 2 3 359 355 352 349 347 346 343 340 337 335 333 332 330 329 327 326 325 325 325 325 326 327 328 331 332 333 335 337 338 339 339 339 338 337 337 337 337 337 337 339 341 343
207 213 219 224 230 235 240 244 249 253 259 264 268 274 281 286 288 290 289 289 290 290 294 302 307 316 327 328 314 303 306 317 333 347 352 354 355 350 348 348 348 349 348 343 341 340 339 339 338 336 334 332 330 329 328 328 326 326 324 322 323 324 324 324 325 327 329 330 331 333 335 336 335 335 335 334 333 332 332 333 333 334 335 337 339
213 219 224 229 232 233 236 239 242 247 254 262 268 271 275 280 282 283 282 281 283 283 285 289 292 301 312 314 308 296 289 297 317 338 346 347 346 342 339 340 342 342 339 333 332 332 333 333 330 330 329 327 326 325 322 323 323 322 320 318 319 324 324 324 326 327 328 328 328 328 330 331 331 331 330 329 329 329 329 329 330 330 331 333 335
218 223 227 229 230 230 232 235 239 245 251 256 262 267 272 275 273 272 271 271 273 276 278 281 283 289 297 301 301 292 278 280 296 323 340 339 338 333 328 329 332 335 333 329 328 329 330 327 324 323 321 321 323 320 315 316 319 318 314 312 316 322 322 322 324 325 324 323 322 322 323 324 325 326 326 325 325 325 325 325 326 326 327 329 331
222 224 226 226 227 229 231 233 237 243 248 252 255 260 264 266 264 262 262 261 263 266 270 274 278 283 289 293 291 277 268 270 284 308 326 327 328 326 320 319 323 328 328 324 324 327 327 324 322 318 316 318 320 317 312 313 315 313 309 309 314 318 316 317 321 321 319 318 317 316 316 318 319 321 322 321 321 322 322 322 322 323 324 325 328
222 223 225 227 229 232 233 234 236 240 245 249 252 256 258 259 257 255 251 252 256 258 260 264 270 277 284 288 279 262 260 266 280 298 309 312 317 317 313 314 319 323 323 321 323 325 325 324 323 318 317 320 320 315 313 313 313 310 305 307 312 312 310 313 317 317 315 314 314 314 313 314 316 318 319 319 319 318 318 318 319 320 321 323 325
220 223 226 229 231 234 236 236 238 240 243 247 250 254 256 256 255 250 244 243 246 248 251 255 260 268 273 275 274 273 274 280 287 292 299 306 314 314 310 313 319 321 322 323 325 324 323 324 322 317 318 322 319 314 313 313 312 309 307 307 309 308 307 309 312 312 311 310 310 311 312 313 313 314 315 316 316 314 315 315 316 317 319 320 322
219 222 225 228 230 233 236 238 240 243 246 251 253 253 254 254 252 247 239 235 237 241 244 247 251 253 254 259 272 286 296 300 299 300 305 311 316 315 312 314 317 319 322 323 323 321 320 320 318 315 317 318 314 310 310 310 309 308 307 307 307 307 306 306 308 308 308 307 306 307 310 311 310 309 311 313 313 311 311 312 312 313 315 317 318
218 220 224 227 229 232 235 236 239 243 249 254 256 255 253 250 246 241 234 230 230 231 233 236 240 242 245 256 272 286 296 298 299 305 309 309 310 310 309 311 313 315 317 318 317 315 314 314 313 312 312 312 308 306 307 306 304 303 303 305 306 306 304 304 305 307 306 303 302 304 307 307 305 305 307 310 309 307 307 308 308 309 311 312 313
218 220 223 227 230 232 233 235 237 242 249 252 253 252 250 246 240 233 227 226 225 222 221 222 227 233 237 248 264 279 287 293 300 305 305 304 304 305 306 307 308 309 311 312 311 310 307 307 308 308 308 307 304 304 304 301 299 300 302 303 304 303 302 302 303 305 303 300 299 302 303 302 301 301 303 305 305 303 302 303 304 305 306 308 309
219 221 225 229 233 235 235 235 235 240 247 249 247 246 244 240 234 225 220 222 221 217 213 212 216 218 220 234 262 279 285 293 298 298 299 300 301 303 305 306 306 306 306 309 309 306 303 303 304 306 306 303 302 303 301 298 299 301 302 302 302 301 300 300 301 301 300 299 299 299 298 299 299 298 298 300 300 298 297 299 300 301 302 305 306
224 225 226 229 232 234 235 235 236 239 243 243 240 238 236 232 227 221 219 219 215 211 208 209 210 209 218 248 273 281 284 290 293 294 298 299 299 302 304 304 305 304 305 307 306 301 301 302 302 303 303 301 302 303 300 298 300 301 301 300 299 298 298 299 299 299 298 297 296 294 294 296 294 293 294 295 293 293 294 295 296 297 299 301 303
228 228 229 230 232 234 235 236 238 240 239 237 234 230 228 227 224 221 218 215 211 208 208 213 217 223 248 269 275 279 284 289 292 293 294 294 295 298 299 300 301 301 304 306 302 299 300 301 300 302 303 302 304 304 301 299 299 299 299 299 297 298 298 296 295 296 296 294 292 289 289 288 286 286 289 289 288 290 291 292 293 294 295 297 298
232 232 233 233 233 232 232 234 237 238 235 233 231 227 224 223 222 220 218 217 217 215 217 224 231 244 261 271 275 280 285 289 291 291 291 291 293 294 294 295 295 296 298 298 295 295 296 296 298 302 304 304 305 305 304 303 302 301 300 300 301 302 299 295 293 293 291 289 287 286 285 284 282 282 284 283 285 287 288 288 290 290 291 293 294
234 234 235 233 231 230 229 230 233 234 233 231 231 228 224 221 220 218 219 221 222 223 228 234 244 257 267 273 276 280 285 287 287 288 289 290 291 292 291 291 291 293 296 293 290 291 292 294 298 302 304 306 307 305 304 306 307 305 301 302 306 304 300 297 296 292 287 286 288 288 288 289 290 290 289 287 286 287 288 288 287 286 286 287 289
233 233 233 232 230 228 229 230 231 232 232 231 231 229 224 221 220 219 220 222 222 226 233 242 252 261 267 272 275 278 280 281 281 282 285 287 288 290 292 293 295 299 299 294 293 294 295 298 302 304 305 306 305 303 303 304 305 303 300 300 302 301 299 299 298 294 291 291 292 292 293 296 298 298 296 294 293 292 290 289 287 285 284 284 284
233 232 232 231 229 227 228 229 231 232 232 231 231 229 225 221 220 221 221 221 223 229 236 244 253 260 265 269 272 274 276 278 280 283 285 287 290 293 295 297 299 301 299 296 296 296 296 297 301 303 303 302 301 300 300 299 299 297 295 295 296 295 294 295 294 293 293 293 293 295 297 299 299 298 296 295 295 293 290 288 287 286 285 284 283
Height
5929 5929 5929 5929 5929 5928 5928 5928 5928 5927 5927 5926 5926 5926 5926 5925 5925 5925 5925 5925 5925 5924 5924 5924 5924 5924 5924 5924 5924 5924 5924 5923 5923 5923 5922 5922 5922 5922 5922 5921 5921 5922 5921 5921 5922 5921 5921 5921 5921 5921 5921 5921 5921 5921 5921 5921 5920 5920 5920 5920 5920 5919 5919 5918 5918 5918 5918 5918 5918 5917 5917 5917 5916 5916 5915 5915 5915 5914 5914 5914 5914 5914 5914 5914 5913
5930 5930 5930 5930 5929 5929 5929 5929 5929 5928 5927 5927 5927 5927 5926 5926 5926 5926 5926 5926 5926 5926 5925 5925 5925 5925 5925 5925 5925 5925 5925 5925 5925 5924 5924 5923 5923 5923 5923 5922 5922 5922 5922 5922 5922 5922 5922 5922 5922 5922 5922 5922 5922 5922 5922 5922 5922 5921 5921 5921 5921 5920 5920 5919 5919 5919 5919 5919 5919 5918 5918 5918 5918 5917 5916 5916 5915 5915 5915 5915 5915 5915 5914 5914 5914
5930 5930 5931 5931 5930 5930 5930 5930 5929 5929 5928 5928 5928 5928 5927 5927 5927 5926 5926 5926 5926 5926 5926 5926 5926 5926 5926 5926 5926 5926 5926 5926 5926 5926 5925 5924 5924 5924 5924 5923 5923 5923 5923 5923 5923 5923 5923 5923 5923 5923 5923 5923 5923 5923 5923 5923 5923 5923 5923 5922 5922 5922 5921 5921 5920 5920 5920 5920 5920 5920 5919 5919 5918 5918 5917 5917 5916 5916 5916 5916 5916 5915 5915 5915 5914
5930 5931 5931 5931 5931 5931 5931 5931 5931 5930 5929 5929 5929 5929 5928 5928 5927 5927 5927 5927 5927 5927 5927 5927 5927 5927 5927 5927 5927 5927 5927 5927 5927 5926 5926 5925 5925 5925 5925 5925 5924 5924 5924 5924 5924 5924 5923 5923 5924 5924 5924 5924 5924 5924 5924 5924 5924 5924 5924 5924 5923 5923 5923 5922 5922 5922 5921 5921 5921 5921 5920 5920 5919 5919 5918 5918 5918 5917 5917 5917 5917 5916 5916 5916 5915
5930 5931 5931 5932 5932 5932 5932 5932 5932 5931 5931 5930 5930 5930 5930 5929 5929 5928 5928 5928 5928 5928 5928 5928 5928 5928 5928 5928 5928 5928 5928 5928 5928 5927 5927 5926 5926 5926 5926 5926 5926 5926 5926 5925 5925 5925 5924 5924 5925 5925 5925 5925 5925 5925 5925 5925 5925 5925 5925 5925 5924 5924 5924 5923 5923 5923 5923 5923 5923 5922 5922 5921 5921 5920 5920 5919 5919 5919 5918 5918 5918 5917 5917 5916 5916
5931 5931 5932 5932 5932 5933 5933 5933 5933 5932 5932 5931 5931 5931 5931 5930 5930 5930 5929 5929 5929 5929 5929 5929 5929 5929 5929 5928 5928 5929 5929 5929 5929 5928 5928 5927 5927 5927 5927 5927 5927 5927 5927 5927 5926 5926 5926 5926 5926 5926 5926 5926 5926 5926 5926 5926 5926 5926 5926 5926 5926 5925 5925 5925 5924 5924 5924 5924 5923 5923 5923 5922 5922 5922 5921 5921 5920 5920 5919 5919 5918 5918 5917 5917 5917
5932 5932 5933 5933 5933 5934 5934 5934 5933 5933 5933 5933 5932 5932 5932 5931 5931 5931 5931 5931 5930 5930 5930 5930 5930 5930 5930 5929 5929 5930 5930 5930 5930 5929 5929 5929 5928 5928 5928 5928 5928 5928 5928 5928 5927 5927 5927 5927 5927 5927 5926 5927 5927 5927 5927 5927 5927 5927 5927 5927 5927 5927 5926 5926 5925 5925 5925 5925 5924 5924 5924 5923 5923 5923 5922 5922 5921 5921 5920 5919 5919 5919 5918 5918 5917
5932 5933 5933 5934 5934 5935 5935 5935 5935 5934 5934 5934 5934 5933 5933 5933 5932 5932 5932 5932 5932 5931 5931 5931 5931 5931 5931 5931 5930 5931 5931 5931 5931 5930 5930 5930 5929 5929 5929 5929 5929 5929 5929 5929 5928 5928 5928 5928 5928 5927 5927 5927 5927 5928 5928 5928 5928 5928 5928 5927 5927 5927 5927 5927 5926 5926 5926 5925 5925 5925 5924 5924 5924 5923 5923 5922 5922 5922 5921 5921 5920 5920 5919 5919 5918
5934 5934 5934 5934 5935 5936 5936 5936 5936 5936 5935 5935 5935 5935 5935 5934 5934 5933 5933 5933 5933 5933 5933 5932 5932 5932 5932 5932 5932 5932 5932 5932 5932 5931 5931 5930 5930 5930 5930 5930 5930 5930 5930 5930 5929 5929 5929 5929 5929 5928 5928 5928 5928 5928 5929 5929 5929 5929 5928 5928 5928 5928 5927 5927 5927 5927 5926 5926 5926 5925 5925 5924 5924 5924 5923 5923 5923 5922 5922 5922 5921 5921 5920 5920 5919
5936 5936 5936 5936 5937 5937 5937 5937 5937 5936 5936 5936 5936 5936 5936 5936 5935 5934 5934 5934 5933 5933 5934 5933 5933 5933 5933 5933 5933 5933 5933 5933 5932 5932 5931 5931 5931 5931 5931 5930 5931 5931 5931 5931 5930 5930 5930 5930 5930 5930 5930 5930 5929 5929 5929 5929 5929 5929 5929 5929 5929 5928 5928 5928 5928 5927 5927 5927 5927 5926 5926 5925 5925 5924 5924 5923 5923 5923 5922 5922 5922 5921 5921 5920 5919
5937 5937 5937 5938 5938 5938 5938 5938 5938 5938 5937 5937 5937 5937 5937 5937 5937 5936 5935 5934 5934 5934 5934 5934 5934 5934 5935 5935 5934 5934 5934 5934 5933 5933 5932 5932 5932 5932 5931 5931 5931 5932 5932 5932 5932 5932 5931 5931 5931 5931 5931 5931 5931 5931 5930 5930 5930 5930 5929 5929 5929 5929 5929 5928 5928 5928 5928 5928 5927 5927 5927 5926 5926 5925 5925 5924 5924 5923 5923 5922 5922 5921 5920 5920 5919
5939 5939 5939 5939 5939 5939 5939 5939 5939 5938 5938 5938 5938 5938 5938 5938 5938 5937 5936 5935 5935 5935 5935 5935 5935 5935 5936 5936 5935 5935 5935 5935 5935 5934 5934 5933 5933 5933 5932 5932 5932 5933 5933 5933 5933 5933 5932 5932 5932 5932 5932 5932 5932 5932 5931 5931 5930 5930 5930 5930 5930 5930 5929 5929 5929 5929 5929 5928 5928 5928 5927 5927 5926 5926 5925 5925 5924 5923 5923 5922 5922 5921 5920 5920 5919
5940 5940 5940 5940 5940 5940 5940 5939 5939 5939 5938 5938 5938 5938 5938 5939 5939 5938 5938 5937 5937 5937 5937 5936 5936 5936 5937 5937 5936 5936 5936 5936 5936 5936 5935 5935 5934 5934 5933 5933 5933 5933 5934 5934 5934 5934 5933 5933 5933 5933 5933 5933 5933 5933 5933 5932 5932 5931 5931 5931 5931 5930 5930 5930 5930 5929 5929 5929 5929 5928 5928 5927 5927 5926 5926 5925 5925 5924 5923 5923 5922 5921 5920 5919 5919
5941 5941 5940 5940 5940 5940 5940 5940 5940 5939 5939 5939 5939 5939 5939 5939 5939 5939 5939 5939 5938 5938 5938 5938 5938 5938 5938 5938 5937 5937 5937 5937 5937 5937 5936 5936 5935 5935 5935 5934 5935 5935 5935 5935 5935 5935 5934 5934 5934 5934 5934 5934 5934 5934 5934 5934 5933 5933 5932 5932 5932 5931 5931 5931 5931 5930 5930 5930 5929 5929 5928 5928 5927 5927 5926 5926 5925 5924 5924 5923 5922 5921 5920 5919 5918
5941 5941 5941 5940 5940 5940 5940 5940 5940 5940 5940 5940 5940 5940 5940 5940 5940 5940 5940 5940 5940 5939 5939 5939 5939 5939 5939 5939 5939 5938 5938 5938 5938 5938 5937 5937 5937 5937 5936 5936 5936 5936 5936 5936 5936 5936 5935 5935 5935 5935 5935 5935 5935 5935 5935 5935 5934 5934 5933 5933 5933 5932 5932 5932 5931 5931 5930 5930 5929 5929 5928 5928 5927 5927 5926 5926 5925 5924 5923 5922 5921 5920 5919 5918 5917
5941 5941 5941 5940 5940 5940 5940 5941 5941 5941 5941 5941 5941 5942 5942 5941 5941 5940 5941 5941 5941 5941 5940 5939 5940 5940 5940 5940 5940 5939 5939 5939 5939 5939 5939 5938 5938 5938 5938 5938 5938 5938 5938 5937 5937 5937 5937 5937 5936 5936 5936 5936 5936 5936 5936 5935 5935 5935 5934 5934 5934 5933 5933 5932 5932 5931 5931 5930 5930 5929 5928 5928 5927 5926 5926 5925 5924 5923 5922 5922 5921 5920 5919 5918 5917
5941 5941 5941 5941 5941 5941 5941 5941 5941 5942 5942 5942 5942 5943 5943 5942 5942 5941 5941 5942 5942 5942 5942 5941 5941 5941 5941 5941 5941 5941 5941 5941 5940 5940 5940 5940 5940 5940 5940 5940 5940 5939 5939 5939 5938 5938 5938 5938 5938 5937 5937 5937 5937 5937 5936 5936 5936 5935 5935 5934 5934 5934 5934 5933 5932 5932 5931 5930 5930 5929 5928 5928 5927 5926 5925 5925 5924 5923 5922 5921 5920 5919 5918 5917 5916
5941 5941 5941 5941 5941 5941 5941 5941 5942 5942 5942 5942 5943 5943 5943 5943 5943 5943 5943 5943 5943 5943 5944 5943 5943 5942 5943 5942 5942 5942 5942 5942 5941 5941 5942 5942 5941 5941 5941 5941 5941 5941 5940 5940 5940 5940 5939 5939 5939 5939 5938 5938 5938 5937 5937 5937 5936 5936 5935 5935 5935 5934 5934 5933 5933 5932 5931 5930 5930 5929 5928 5928 5927 5926 5926 5925 5924 5923 5922 5921 5920 5918 5917 5916 5915
5941 5941 5941 5941 5941 5942 5942 5942 5942 5942 5942 5943 5943 5944 5944 5944 5943 5943 5944 5944 5944 5944 5945 5945 5944 5944 5944 5943 5943 5943 5943 5942 5942 5942 5943 5943 5943 5943 5943 5943 5943 5943 5942 5942 5941 5941 5940 5940 5940 5940 5940 5940 5939 5939 5938 5938 5937 5936 5936 5935 5935 5935 5934 5934 5933 5932 5932 5931 5930 5929 5929 5928 5927 5927 5926 5925 5924 5922 5921 5920 5919 5918 5917 5916 5915
5941 5941 5941 5941 5942 5942 5942 5942 5943 5943 5943 5943 5944 5944 5944 5944 5944 5944 5944 5945 5945 5945 5945 5946 5945 5945 5945 5944 5944 5943 5943 5943 5943 5944 5944 5944 5944 5944 5944 5944 5944 5944 5943 5943 5943 5942 5942 5942 5942 5941 5941 5941 5940 5940 5939 5938 5938 5937 5937 5936 5936 5935 5935 5934 5933 5933 5932 5931 5930 5930 5929 5928 5927 5926 5925 5924 5923 5922 5921 5920 5918 5917 5916 5915 5914
5941 5941 5941 5942 5942 5942 5942 5943 5943 5943 5944 5944 5945 5945 5945 5945 5945 5945 5945 5945 5945 5945 5946 5946 5946 5946 5946 5945 5945 5944 5944 5944 5945 5945 5945 5945 5945 5945 5945 5945 5945 5945 5944 5944 5944 5944 5943 5943 5943 5942 5942 5942 5941 5941 5940 5939 5939 5938 5937 5937 5936 5936 5935 5934 5934 5933 5932 5932 5931 5930 5929 5928 5927 5926 5924 5923 5922 5921 5920 5919 5918 5917 5916 5915 5914
5941 5941 5941 5942 5942 5943 5943 5943 5943 5944 5944 5945 5945 5945 5945 5945 5946 5945 5946 5946 5945 5945 5946 5946 5946 5947 5946 5946 5945 5945 5945 5945 5945 5945 5945 5945 5945 5945 5946 5946 5946 5945 5945 5945 5945 5945 5945 5945 5944 5944 5943 5943 5942 5942 5941 5940 5940 5939 5938 5938 5937 5936 5935 5935 5934 5933 5933 5932 5931 5929 5928 5927 5926 5925 5924 5923 5922 5921 5920 5919 5918 5917 5916 5915 5913
5941 5941 5942 5942 5943 5943 5943 5944 5944 5944 5945 5945 5945 5945 5946 5946 5946 5946 5946 5946 5945 5945 5946 5946 5946 5946 5946 5946 5946 5946 5946 5946 5946 5946 5946 5946 5946 5946 5946 5946 5946 5946 5946 5946 5946 5946 5945 5945 5945 5944 5944 5943 5943 5942 5942 5941 5940 5940 5939 5938 5937 5936 5935 5934 5933 5933 5932 5931 5930 5929 5928 5927 5926 5925 5924 5923 5922 5921 5920 5919 5917 5916 5915 5914 5913
5941 5941 5942 5942 5943 5943 5944 5944 5944 5945 5945 5945 5945 5946 5946 5946 5946 5946 5946 5946 5946 5946 5946 5946 5946 5946 5947 5947 5947 5947 5947 5947 5947 5947 5947 5947 5947 5947 5947 5947 5947 5946 5946 5946 5946 5946 5945 5945 5945 5944 5944 5943 5943 5942 5942 5941 5940 5940 5939 5938 5937 5936 5935 5934 5933 5932 5931 5930 5929 5928 5927 5926 5925 5924 5923 5922 5921 5920 5919 5918 5917 5916 5914 5913 5912
5941 5941 5942 5943 5943 5944 5944 5945 5945 5945 5945 5945 5946 5946 5946 5946 5946 5947 5947 5947 5947 5946 5946 5947 5947 5947 5947 5948 5948 5947 5947 5947 5947 5947 5948 5948 5948 5948 5947 5947 5947 5946 5946 5946 5946 5945 5945 5945 5944 5944 5943 5943 5943 5942 5941 5941 5940 5939 5938 5937 5936 5935 5935 5934 5933 5932 5931 5930 5929 5927 5926 5925 5924 5923 5923 5922 5921 5920 5919 5918 5916 5915 5914 5912 5911
5940 5941 5942 5943 5944 5944 5945 5945 5946 5946 5946 5946 5946 5946 5947 5947 5947 5947 5947 5947 5947 5947 5947 5947 5947 5948 5948 5948 5948 5948 5948 5948 5948 5947 5948 5948 5948 5948 5947 5947 5947 5946 5946 5945 5945 5945 5945 5944 5944 5944 5943 5943 5942 5941 5941 5940 5939 5939 5938 5937 5936 5935 5934 5933 5933 5932 5931 5930 5929 5928 5926 5925 5924 5923 5923 5922 5921 5920 5918 5917 5916 5914 5913 5911 5910
5940 5941 5942 5943 5944 5944 5945 5946 5946 5946 5947 5947 5947 5947 5948 5948 5948 5948 5947 5947 5947 5948 5948 5948 5948 5948 5948 5948 5948 5948 5948 5948 5948 5948 5948 5948 5948 5948 5947 5947 5946 5946 5946 5945 5945 5944 5944 5944 5944 5943 5943 5943 5942 5941 5940 5939 5939 5938 5937 5936 5935 5935 5934 5933 5932 5932 5931 5930 5929 5928 5927 5925 5924 5923 5922 5921 5920 5919 5917 5916 5914 5913 5911 5910 5908
5939 5940 5942 5943 5944 5944 5945 5946 5946 5947 5947 5947 5947 5947 5948 5948 5948 5948 5948 5948 5948 5948 5948 5948 5948 5948 5948 5948 5948 5948 5948 5948 5949 5949 5948 5948 5948 5948 5947 5947 5946 5946 5945 5945 5945 5944 5944 5943 5943 5943 5943 5942 5942 5941 5940 5939 5938 5938 5937 5936 5935 5934 5934 5933 5932 5932 5931 5930 5929 5928 5926 5925 5924 5923 5922 5921 5919 5918 5916 5915 5913 5911 5909 5908 5906
5939 5940 5941 5942 5943 5944 5945 5946 5946 5947 5947 5947 5947 5947 5948 5948 5948 5949 5949 5949 5949 5949 5949 5949 5949 5949 5949 5948 5948 5948 5948 5948 5949 5949 5949 5948 5948 5948 5947 5947 5946 5946 5945 5945 5945 5944 5944 5943 5943 5943 5942 5941 5941 5940 5939 5939 5938 5938 5937 5936 5935 5934 5934 5933 5933 5932 5931 5930 5929 5927 5926 5925 5923 5922 5921 5919 5918 5916 5915 5913 5911 5909 5907 5905 5903
5938 5939 5940 5942 5943 5944 5945 5945 5946 5947 5947 5947 5947 5947 5947 5948 5948 5948 5949 5949 5949 5949 5949 5949 5949 5949 5948 5948 5948 5948 5948 5948 5948 5948 5948 5948 5948 5947 5947 5947 5946 5945 5945 5945 5945 5944 5944 5943 5943 5942 5942 5941 5941 5940 5939 5939 5938 5938 5937 5936 5935 5934 5934 5933 5932 5932 5931 5929 5928 5927 5925 5924 5922 5921 5919 5918 5916 5915 5913 5911 5909 5906 5904 5902 5900
5938 5939 5940 5941 5942 5943 5944 5945 5945 5946 5946 5947 5947 5947 5947 5947 5947 5948 5948 5948 5949 5949 5949 5949 5948 5948 5948 5948 5948 5949 5949 5949 5948 5948 5948 5948 5948 5947 5947 5946 5946 5945 5945 5945 5944 5944 5944 5943 5943 5942 5942 5941 5941 5940 5940 5939 5938 5937 5937 5936 5935 5934 5933 5933 5932 5931 5930 5928 5927 5925 5924 5922 5921 5919 5918 5916 5914 5913 5910 5908 5906 5904 5902 5900 5897
5938 5939 5940 5941 5942 5942 5943 5944 5945 5945 5945 5946 5946 5947 5947 5947 5947 5947 5947 5948 5948 5948 5948 5948 5948 5948 5948 5948 5948 5948 5949 5949 5949 5948 5948 5948 5948 5947 5947 5946 5945 5945 5944 5944 5944 5944 5944 5943 5943 5942 5942 5942 5941 5940 5940 5939 5938 5937 5936 5936 5935 5934 5933 5932 5931 5930 5929 5927 5926 5924 5922 5921 5919 5917 5916 5914 5912 5910 5908 5906 5904 5902 5900 5897 5895
5938 5939 5939 5940 5941 5941 5942 5943 5944 5944 5944 5945 5945 5946 5946 5947 5947 5947 5947 5947 5947 5947 5948 5948 5948 5948 5947 5947 5947 5947 5948 5948 5948 5948 5948 5948 5948 5947 5946 5946 5945 5945 5944 5944 5944 5944 5943 5943 5943 5942 5942 5941 5941 5940 5939 5939 5938 5937 5936 5935 5934 5933 5932 5931 5930 5929 5928 5926 5925 5923 5921 5919 5917 5916 5914 5912 5910 5908 5906 5904 5902 5900 5898 5895 5893
5937 5938 5939 5939 5940 5940 5941 5942 5942 5943 5943 5944 5944 5944 5945 5946 5946 5946 5946 5946 5946 5947 5947 5947 5947 5947 5947 5946 5946 5946 5947 5947 5947 5947 5947 5947 5947 5946 5946 5946 5945 5945 5945 5944 5944 5943 5943 5943 5942 5942 5942 5941 5940 5940 5939 5938 5937 5936 5935 5934 5933 5932 5931 5930 5929 5928 5926 5925 5924 5922 5920 5918 5916 5914 5912 5910 5908 5906 5904 5902 5900 5898 5896 5893 5891
5936 5937 5938 5938 5939 5939 5940 5941 5941 5942 5942 5943 5943 5943 5943 5944 5945 5945 5945 5945 5946 5946 5946 5946 5946 5946 5946 5946 5946 5946 5946 5946 5946 5946 5946 5946 5946 5945 5945 5945 5945 5945 5945 5944 5944 5943 5943 5942 5942 5941 5941 5940 5939 5939 5938 5937 5936 5935 5934 5933 5932 5931 5929 5928 5927 5925 5924 5923 5922 5920 5918 5916 5914 5912 5910 5908 5906 5904 5902 5900 5898 5896 5893 5891 5889
5936 5936 5937 5938 5938 5939 5939 5939 5940 5940 5941 5941 5942 5942 5942 5943 5943 5944 5944 5944 5945 5945 5945 5945 5945 5945 5945 5945 5945 5945 5945 5945 5945 5945 5945 5945 5945 5944 5944 5944 5944 5944 5944 5943 5943 5943 5943 5942 5942 5941 5940 5939 5938 5937 5936 5935 5934 5933 5932 5930 5929 5928 5927 5926 5924 5923 5921 5920 5919 5917 5916 5914 5912 5910 5908 5906 5904 5902 5900 5898 5895 5893 5891 5889 5887
5935 5935 5936 5937 5937 5938 5938 5938 5938 5939 5939 5940 5940 5940 5941 5941 5942 5942 5942 5943 5943 5944 5944 5944 5945 5944 5944 5943 5943 5944 5944 5944 5944 5944 5944 5944 5943 5943 5943 5943 5943 5943 5942 5942 5942 5941 5941 5941 5940 5940 5939 5938 5937 5936 5934 5934 5933 5931 5930 5928 5926 5925 5924 5923 5922 5920 5918 5917 5916 5914 5913 5911 5909 5907 5905 5903 5901 5899 5897 5895 5893 5890 5888 5886 5884
5933 5934 5935 5936 5936 5936 5937 5937 5937 5937 5938 5938 5939 5939 5939 5940 5940 5940 5941 5941 5941 5942 5942 5943 5943 5943 5943 5943 5942 5942 5942 5943 5943 5943 5943 5943 5942 5942 5941 5941 5941 5941 5941 5940 5940 5940 5940 5940 5939 5938 5937 5936 5936 5934 5932 5931 5930 5929 5927 5925 5924 5922 5921 5920 5919 5917 5915 5914 5913 5911 5909 5908 5906 5904 5902 5900 5898 5896 5894 5892 5890 5888 5886 5884 5882
5932 5933 5933 5934 5935 5935 5935 5935 5936 5936 5937 5937 5937 5938 5938 5938 5939 5939 5939 5939 5940 5940 5941 5941 5941 5941 5941 5941 5941 5941 5941 5941 5941 5942 5941 5941 5941 5941 5940 5940 5939 5939 5939 5939 5939 5939 5939 5938 5938 5937 5936 5934 5933 5932 5931 5929 5928 5927 5924 5922 5922 5920 5918 5917 5916 5915 5912 5910 5909 5907 5906 5904 5903 5901 5899 5897 5895 5893 5891 5889 5887 5885 5883 5881 5879
5930 5931 5932 5932 5933 5933 5934 5934 5934 5935 5935 5936 5936 5936 5936 5936 5937 5937 5938 5938 5938 5939 5939 5939 5939 5939 5940 5940 5939 5939 5939 5940 5940 5940 5940 5940 5939 5939 5939 5938 5938 5938 5938 5938 5937 5937 5937 5937 5936 5935 5934 5933 5931 5930 5928 5927 5926 5925 5922 5920 5920 5919 5916 5914 5914 5912 5909 5907 5905 5903 5902 5901 5899 5898 5896 5894 5892 5889 5888 5886 5884 5882 5880 5878 5876
5929 5930 5930 5931 5931 5932 5932 5932 5933 5933 5934 5934 5934 5934 5934 5934 5935 5936 5936 5936 5936 5937 5937 5937 5938 5938 5938 5938 5938 5938 5938 5938 5939 5938 5938 5938 5938 5938 5937 5937 5937 5937 5937 5936 5936 5935 5935 5934 5934 5933 5932 5931 5930 5927 5925 5924 5922 5921 5919 5917 5917 5916 5913 5911 5911 5909 5906 5903 5901 5900 5899 5897 5895 5893 5892 5891 5888 5886 5884 5883 5881 5879 5877 5875 5872
5927 5928 5929 5930 5930 5930 5930 5930 5931 5931 5931 5931 5932 5932 5932 5933 5933 5934 5934 5934 5935 5935 5935 5936 5936 5936 5936 5936 5936 5936 5937 5937 5937 5937 5937 5936 5936 5936 5936 5935 5935 5935 5935 5935 5934 5933 5933 5932 5931 5931 5930 5929 5928 5925 5923 5921 5918 5916 5914 5912 5912 5911 5909 5907 5908 5906 5902 5898 5896 5896 5896 5893 5890 5889 5889 5887 5885 5882 5880 5879 5877 5875 5873 5871 5869
5925 5926 5927 5928 5928 5928 5928 5929 5929 5929 5929 5929 5929 5930 5930 5931 5931 5931 5932 5932 5933 5933 5934 5934 5934 5935 5935 5935 5935 5935 5936 5936 5935 5935 5935 5935 5935 5935 5934 5934 5933 5933 5933 5933 5932 5931 5930 5929 5929 5928 5927 5926 5925 5923 5921 5918 5915 5912 5911 5909 5907 5906 5903 5901 5902 5903 5900 5893 5889 5890 5892 5890 5887 5885 5884 5884 5881 5878 5875 5874 5872 5870 5869 5867 5865
5923 5924 5925 5926 5926 5926 5927 5927 5927 5927 5927 5927 5927 5927 5928 5928 5929 5930 5930 5930 5931 5932 5932 5933 5933 5934 5934 5934 5934 5935 5935 5934 5934 5934 5934 5933 5933 5933 5933 5932 5931 5931 5931 5931 5930 5929 5928 5927 5926 5925 5924 5923 5922 5921 5918 5915 5912 5910 5908 5906 5903 5901 5899 5896 5896 5898 5896 5890 5885 5884 5886 5886 5883 5880 5880 5879 5877 5873 5870 5869 5868 5866 5865 5863 5861
5921 5922 5923 5924 5924 5925 5925 5925 5925 5925 5925 5925 5925 5925 5926 5927 5927 5928 5928 5929 5929 5930 5931 5932 5932 5933 5933 5934 5934 5934 5933 5933 5933 5933 5932 5932 5931 5931 5931 5930 5929 5929 5928 5928 5928 5925 5924 5923 5923 5923 5922 5919 5918 5918 5915 5911 5909 5907 5904 5902 5899 5896 5894 5891 5891 5892 5890 5886 5882 5879 5879 5880 5878 5875 5875 5874 5872 5868 5865 5864 5863 5861 5860 5859 5857
5919 5920 5921 5922 5922 5922 5923 5923 5923 5923 5923 5923 5923 5923 5924 5925 5925 5926 5927 5927 5928 5929 5930 5931 5931 5932 5932 5933 5933 5933 5932 5932 5932 5931 5931 5930 5930 5930 5929 5928 5928 5926 5926 5926 5924 5921 5920 5920 5919 5920 5919 5916 5914 5915 5912 5907 5905 5903 5900 5897 5894 5891 5888 5886 5885 5885 5883 5880 5877 5873 5872 5875 5872 5868 5869 5869 5865 5862 5860 5859 5858 5856 5855 5854 5852
5917 5918 5919 5920 5920 5920 5921 5921 5921 5921 5921 5921 5921 5922 5923 5923 5924 5925 5925 5926 5927 5928 5929 5930 5930 5931 5931 5932 5932 5931 5931 5931 5930 5930 5929 5929 5928 5928 5927 5927 5926 5924 5924 5923 5920 5917 5917 5916 5915 5915 5916 5913 5910 5910 5908 5904 5900 5898 5895 5891 5888 5885 5882 5878 5878 5879 5877 5874 5870 5864 5864 5867 5864 5860 5863 5862 5858 5856 5855 5853 5853 5851 5850 5849 5847
5914 5916 5917 5918 5918 5918 5918 5918 5919 5919 5919 5919 5919 5920 5921 5922 5922 5923 5924 5925 5926 5927 5928 5928 5929 5929 5930 5930 5930 5930 5929 5929 5928 5927 5927 5926 5926 5926 5925 5925 5924 5923 5923 5921 5918 5916 5915 5913 5912 5912 5911 5910 5906 5904 5903 5899 5894 5891 5887 5883 5883 5881 5874 5869 5870 5872 5868 5864 5861 5857 5856 5859 5858 5855 5857 5855 5852 5851 5849 5847 5847 5846 5844 5843 5841
5912 5913 5914 5915 5915 5916 5916 5916 5916 5916 5917 5917 5918 5919 5920 5921 5921 5922 5923 5924 5924 5925 5926 5926 5927 5928 5928 5928 5928 5928 5927 5927 5926 5925 5924 5923 5923 5923 5922 5922 5921 5921 5921 5918 5915 5914 5913 5911 5911 5909 5908 5907 5903 5899 5897 5894 5889 5885 5879 5875 5877 5875 5866 5860 5861 5861 5859 5858 5859 5856 5853 5855 5855 5853 5852 5850 5847 5845 5843 5841 5839 5838 5836 5836 5834
5909 5910 5911 5912 5913 5913 5913 5914 5914 5914 5914 5915 5916 5917 5918 5919 5920 5921 5922 5922 5923 5924 5924 5925 5925 5926 5926 5926 5926 5926 5926 5925 5923 5922 5921 5920 5920 5920 5918 5917 5918 5918 5917 5913 5910 5910 5910 5909 5909 5907 5905 5904 5900 5896 5894 5890 5886 5882 5874 5870 5871 5867 5860 5854 5852 5851 5852 5855 5857 5853 5849 5850 5852 5849 5845 5843 5841 5839 5836 5833 5830 5828 5827 5827 5826
5906 5907 5908 5909 5910 5911 5911 5911 5911 5911 5912 5914 5915 5916 5917 5918 5919 5919 5920 5921 5922 5922 5922 5923 5923 5924 5924 5924 5923 5923 5923 5922 5921 5920 5918 5917 5916 5916 5914 5913 5913 5914 5913 5908 5904 5904 5904 5905 5905 5903 5902 5900 5897 5893 5891 5887 5884 5879 5872 5867 5865 5861 5856 5851 5846 5844 5844 5847 5850 5849 5844 5843 5844 5842 5837 5834 5832 5830 5828 5824 5821 5820 5818 5817 5817